SCP
0 0 0 0 0 0 0 0 0 0 0 0 0 0 0 0 0 0 0 0 0 0 0 0 0 0 0 0 0 0 0 0 0 0 0 0 0 0 0 0 0 0 0 0
0 0 0 0 0 0 0 0 0 0 0 0 -0 -0 0 0 0 0 0 0 0 0 0 0 0 0 0 0 0 0 0 0 0 0 0 0 0 0 0 0 0 0 0 0
0 0 0 0 0 0 0 0 0 0 0 -0 -0 -0 0 0 0 0 0 0 0 0 0 0 0 0 0 0 0 0 0 0 0 0 0 0 0 0 0 0 0 0 0 0
0 0 0 0 0 0 0 0 0 0 0 0 -0 -0 0 0 0 0 0 0 0 0 0 0 0 0 0 0 0 0 0 0 0 0 0 0 0 0 0 0 0 0 0 0
0 0 0 0 0 0 0 0 0 0 0 0 0 0 0 0 0 0 0 0 0 0 0 0 0 0 0 0 0 0 0 0 0 0 0 0 0 0 0 0 0 0 0 0
0 0 0 0 0 0 0 0 0 0 0 0 0 0 0 0 0 0 0 0 0 0 0 0 0 0 0 0 0 0 0 0 0 0 0 0 0 0 0 0 0 0 0 0
0 0 0 0 0 0 0 0 0 0 0 0 0 0 0 0 0 0 0 0 0 0 0 0 0 0 0 0 0 0 0 0 0 0 0 0 0 0 0 0 0 0 0 0
0 0 0 0 0 0 0 0 0 0 0 0 0 0 0 0 0 0 0 0 0 0 0 0 0 0 0 0 0 0 0 0 0 0 0 0 0 0 0 0 0 0 0 0
0 0 0 0 0 0 0 0 0 0 0 0 0 0 0 0 0 0 0 0 0 0 0 0 0 0 0 0 0 0 0 0 0 0 0 0 0 0 0 0 0 0 0 0
0 0 0 0 0 0 0 0 0 0 0 0 0 0 0 0 0 0 0 0 0 0 0 0 0 0 0 0 0 0 0 0 0 0 0 0 0 0 0 0 0 0 0 0
0 0 0 0 0 0 0 0 0 0 0 0 0 0 0 0 0 0 0 -0 0 0 0 0 0 0 0 0 0 0 0 0 0 0 0 0 0 0 0 0 0 0 0 0
0 0 0 0 0 0 0 0 0 0 0 0 0 0 0 0 0 0 0 0 0 0 0 0 0 0 0 0 0 0 0 0 0 0 0 0 0 0 0 0 0 0 0 0
0 0 0 0 0 0 0 0 0 0 0 0 0 0 0 0 0 0 0 0 0 0 0 0 -0 0 0 0 0 0 0 0 0 0 0 0 0 0 0 0 0 0 0 0
0 0 0 0 0 0 0 0 0 0 0 0 0 0 0 0 0 0 0 0 0 0 0 0 0 0 0 0 0 0 0 0 0 0 0 0 0 0 0 0 0 0 0 0
0 0 0 0 0 0 0 0 0 0 0 0 0 0 0 0 0 0 0 0 0 0 0 0 0 0 0 0 0 0 0 0 0 0 0 0 0 0 0 0 0 0 0 0
0 0 0 0 0 0 0 0 0 0 0 0 0 0 0 0 0 0 0 0 0 0 0 0 0 0 0 0 0 0 0 0 0 0 0 0 0 0 0 0 0 0 0 0
0 0 0 0 0 0 0 0 0 0 0 0 0 0 0 -0 0 0 0 0 0 0 0 0 0 0 0 0 0 0 0 0 0 0 0 0 0 0 0 0 0 0 0 0
0 0 0 0 0 0 -0 -0 0 0 0 0 0 0 0 0 0 0 0 0 0 0 0 0 0 0 0 0 0 0 0 0 0 0 0 0 0 0 0 0 0 0 0 0
0 0 0 0 0 0 -0 -0 0 0 0 0 0 0 0 0 0 0 0 0 -0 0 0 0 0 0 0 0 0 0 0 0 0 0 0 0 0 0 0 0 0 0 0 0
0 0 0 0 0 0 -0 -0 0 0 0 0 0 0 0 0 0 0 0 0 -0 0 0 0 0 0 0 0 0 0 0 0 0 0 0 0 0 0 0 0 0 0 0 0
-0 0 0 0 0 0 0 0 0 0 0 0 0 0 0 0 0 0 0 0 -0 0 0 0 0 0 0 0 0 0 0 0 0 0 0 0 0 0 0 0 0 0 0 0
0 0 0 0 0 0 0 0 0 0 0 0 -0 -0 0 0 0 0 0 0 0 0 0 0 0 0 0 0 0 0 0 0 0 0 0 0 0 0 0 0 0 0 0 0
0 0 -0 0 0 0 0 0 0 0 0 0 -0 -0 0 0 0 0 0 0 0 0 0 0 0 0 0 0 0 0 0 0 0 0 0 0 0 0 0 0 0 0 0 0
0 0 -0 -0 -0 0 0 0 0 0 0 0 -0 -0 0 0 0 0 0 0 0 -0 -0 0 0 0 0 0 0 0 0 0 0 0 0 0 0 0 0 0 0 0 0 0
0 0 -0 -0 -0 0 -0 -0 0 0 0 0 -0 -0 -0 0 0 0 0 -0 -0 -0 -0 0 0 0 0 0 0 0 0 0 0 0 0 0 0 0 0 0 0 0 0 0
0 0 0 0 0 0 -0 -0 -0 0 0 0 0 -0 -0 0 0 0 0 -0 -0 -0 0 0 0 0 0 0 0 0 0 0 0 0 0 0 0 0 0 0 0 0 0 0
Wind_Speed
2 2 2 5 5 3 2 2 4 4 3 2 5 9 10 6 3 5 6 6 6 6 5 4 3 2 2 2 2 3 3 3 3 3 4 4 3 3 2 3 4 4 4 4
2 4 5 3 2 2 2 3 5 5 2 3 5 10 8 5 5 5 6 6 5 4 4 3 2 1 2 2 3 3 4 4 4 4 3 3 3 2 2 2 3 4 4 4
5 3 3 2 1 2 4 4 4 4 4 2 4 8 4 3 3 4 4 4 4 4 5 4 2 2 1 2 3 3 4 4 4 4 3 3 3 2 1 2 2 3 4 4
4 3 1 1 2 3 6 3 4 3 2 3 1 6 6 3 4 4 5 4 4 4 4 3 2 2 2 2 2 2 3 3 3 4 5 5 4 3 3 3 2 2 3 4
3 2 1 3 3 3 3 1 2 2 2 2 1 3 9 2 4 6 5 4 4 4 4 3 2 2 2 1 1 2 2 3 3 4 5 5 4 2 2 3 3 2 2 2
3 2 2 3 1 2 1 3 2 2 2 3 4 4 8 3 5 5 4 3 3 3 3 2 2 2 2 2 1 1 2 2 3 4 4 5 5 4 4 4 3 2 2 1
4 2 1 1 1 1 2 3 3 3 2 6 1 3 9 6 4 4 4 4 2 1 1 2 2 3 2 2 1 0 2 2 3 3 3 4 4 5 5 4 4 3 2 1
2 5 3 1 3 3 3 5 5 4 4 4 1 6 8 4 3 3 2 2 1 1 1 1 2 2 1 1 1 0 2 2 2 3 3 2 3 3 3 3 4 4 3 2
3 5 2 2 1 4 3 3 3 3 1 2 5 6 8 3 3 3 3 2 1 1 1 1 2 2 2 2 2 0 1 2 2 2 2 2 3 3 3 2 3 3 2 2
3 4 4 2 1 0 3 4 3 3 3 4 5 5 5 5 4 3 3 3 3 2 1 2 2 2 2 2 2 1 1 1 1 2 2 2 2 2 2 2 2 3 3 3
2 2 4 1 3 4 2 2 3 3 3 3 4 7 5 5 3 2 3 3 2 2 2 2 2 2 2 2 2 2 2 2 1 2 2 2 2 2 2 2 2 2 3 3
2 3 3 5 3 2 4 5 5 4 4 3 3 9 4 3 2 1 2 3 2 2 2 2 2 2 2 2 2 2 1 1 1 1 2 2 2 2 2 2 2 2 2 3
3 3 1 4 3 1 2 3 4 3 3 4 5 9 3 2 2 2 2 3 3 2 2 2 2 2 1 1 1 2 1 1 1 1 2 2 2 2 2 2 2 2 2 2
2 3 5 7 5 3 4 4 4 5 4 5 9 10 9 6 5 5 4 3 2 2 2 1 1 1 1 1 1 1 1 0 1 1 1 2 2 2 2 2 2 1 2 2
3 3 4 6 6 4 6 7 7 8 8 8 9 9 11 8 6 5 4 3 3 3 2 2 2 1 1 1 1 1 1 0 0 0 0 1 1 1 1 1 1 1 1 1
1 2 1 4 4 5 7 9 9 10 9 10 10 13 9 7 4 4 4 4 4 4 3 3 2 2 2 2 2 1 1 1 0 0 1 1 1 1 1 1 1 1 1 1
2 3 1 4 5 4 7 9 9 7 7 8 10 11 6 6 6 6 5 5 5 5 4 4 3 3 3 3 2 2 2 1 0 1 1 1 1 1 1 2 1 2 2 2
4 3 2 2 2 7 8 3 5 6 8 8 8 7 6 7 7 6 5 5 6 5 4 4 3 3 3 2 2 2 1 1 1 1 2 1 1 2 2 2 2 2 2 2
5 5 3 2 3 9 8 3 3 4 7 7 8 8 5 5 4 5 4 4 5 5 5 4 4 3 2 2 2 1 1 1 1 2 2 2 2 2 2 3 3 3 2 2
2 3 3 3 3 8 7 3 2 1 7 4 5 6 4 2 3 6 4 3 3 4 3 3 2 2 2 2 2 2 2 2 3 3 3 3 2 3 3 4 3 2 2 3
2 2 4 4 5 9 7 3 2 3 7 3 3 4 3 4 6 6 4 4 3 3 3 2 2 2 3 2 2 3 3 3 4 3 3 2 2 3 4 3 3 3 2 2
6 5 5 4 5 10 3 3 5 6 4 3 4 4 4 5 5 5 4 3 2 2 2 2 1 2 2 2 2 3 4 4 3 2 2 2 2 2 2 3 2 2 3 2
7 8 6 9 9 5 3 5 5 4 5 5 4 5 4 5 5 5 4 3 3 3 2 1 1 2 2 2 2 3 4 2 2 2 2 2 2 2 2 3 3 2 2 2
5 3 4 6 8 7 6 6 6 5 6 5 4 4 4 5 5 5 4 3 3 3 2 1 1 2 3 2 2 3 3 2 2 2 2 2 2 2 2 2 2 3 3 3
5 4 3 7 7 6 7 7 6 5 4 5 5 4 4 4 5 4 4 4 3 3 2 2 2 2 3 3 3 2 2 2 2 2 2 2 2 2 2 2 2 3 4 4
5 7 7 8 7 6 7 5 5 5 6 5 4 5 4 4 5 4 4 4 3 3 2 2 2 2 3 3 3 3 2 2 2 2 2 2 2 2 2 2 1 3 3 5
Wind_Direction
19 83 211 224 217 225 200 210 257 264 292 299 268 277 283 290 286 277 276 271 271 269 274 269 247 230 205 198 190 190 180 185 170 166 164 163 175 176 178 178 171 166 163 166
43 243 246 249 229 247 231 257 273 292 309 281 284 283 282 269 258 251 256 265 268 286 308 307 297 249 209 205 199 195 188 185 185 181 174 161 151 165 175 170 172 172 165 167
207 249 251 209 216 231 239 234 258 276 322 318 315 301 282 281 272 280 269 262 269 265 274 287 295 279 255 232 209 200 200 186 182 165 146 124 104 92 111 164 179 183 173 170
243 276 289 253 234 211 251 245 247 265 305 298 16 297 291 274 295 282 273 274 273 277 273 276 288 298 278 249 221 194 190 180 171 159 157 162 165 170 184 181 173 168 173 171
255 252 232 240 252 197 233 286 243 238 214 288 256 248 287 315 287 278 275 271 276 277 273 275 278 266 282 280 210 190 168 163 161 163 165 168 165 161 146 142 138 147 150 155
263 255 217 219 249 186 153 38 40 50 86 266 224 203 281 253 248 278 290 285 283 290 299 299 316 354 358 4 31 148 154 159 159 162 164 168 163 154 148 150 152 158 151 143
305 283 284 161 79 39 83 85 29 0 345 254 216 212 256 258 256 258 275 287 285 286 320 335 355 6 2 2 3 138 154 162 163 163 168 172 166 163 165 166 167 164 163 176
268 280 248 220 188 189 200 155 165 203 232 276 276 236 257 271 278 282 290 289 319 358 354 352 350 355 350 352 351 15 168 160 162 167 170 166 162 161 167 172 172 173 178 184
207 262 286 264 238 154 165 198 170 143 191 271 264 275 295 290 318 340 351 -0 347 337 347 352 3 7 5 1 344 299 148 144 156 161 154 155 159 158 166 175 168 166 171 171
179 254 288 303 56 52 169 149 111 141 187 255 278 265 262 289 301 334 346 333 322 327 347 359 2 358 357 352 360 24 91 136 144 146 153 155 157 155 153 159 164 164 168 164
168 197 295 310 195 195 150 151 151 163 184 190 264 268 241 240 250 271 295 308 313 317 317 343 345 347 355 10 22 32 62 74 105 135 143 141 147 144 149 173 180 172 167 163
172 157 253 257 253 218 194 186 162 175 226 207 232 268 277 237 244 240 292 309 321 320 321 331 338 355 15 19 17 22 53 70 72 140 136 149 152 148 162 179 181 179 178 178
152 145 352 334 323 313 237 215 186 164 162 197 220 263 288 326 328 313 296 301 308 311 325 334 345 347 352 358 1 9 23 43 44 102 131 147 156 167 184 191 183 184 183 185
138 166 195 216 237 218 247 244 206 178 203 231 234 257 284 303 305 303 298 288 283 278 280 295 313 315 322 320 322 348 355 38 56 70 129 161 181 188 192 188 182 182 178 185
140 208 236 257 264 248 241 243 226 215 218 227 251 255 269 280 276 280 282 285 289 284 281 274 272 274 293 306 317 322 313 313 105 63 102 209 205 184 172 171 175 168 174 195
131 184 233 283 280 269 268 259 241 235 232 242 260 270 267 274 275 272 270 270 268 262 265 270 269 259 262 259 264 269 264 267 231 233 276 249 189 181 185 184 169 160 181 211
181 155 169 275 308 330 270 239 222 227 222 213 235 252 270 279 274 263 255 256 252 254 260 258 251 241 243 243 233 230 228 227 235 262 267 253 205 200 212 203 186 192 195 194
182 163 177 255 6 250 249 229 212 228 248 232 242 257 259 262 271 270 252 240 249 255 260 255 249 246 245 248 244 226 203 207 229 257 265 255 232 221 218 209 207 215 203 201
183 167 167 178 244 275 287 256 196 217 266 237 236 253 265 277 296 284 253 233 243 249 254 248 242 242 237 234 232 213 213 211 227 246 253 247 231 226 221 221 220 216 204 211
147 153 159 178 219 251 262 260 216 169 277 258 227 244 256 282 287 278 279 264 268 268 258 246 243 241 235 242 214 204 222 217 236 245 249 244 229 222 226 226 220 209 199 209
165 179 193 203 233 261 261 258 138 194 258 288 239 243 233 231 241 270 292 292 278 273 265 250 234 233 241 239 201 212 224 235 247 252 248 243 230 230 227 218 210 198 195 194
183 182 195 179 217 253 233 146 196 235 287 294 274 259 248 258 276 285 287 284 284 285 282 261 234 258 266 239 201 224 241 247 247 247 249 250 245 237 220 204 203 193 184 186
206 198 193 198 221 251 218 224 249 268 271 270 270 273 266 270 278 286 288 285 283 271 269 266 238 266 283 269 216 229 251 246 238 237 247 253 252 227 211 199 195 191 187 193
250 217 212 252 262 263 264 265 272 267 266 270 268 270 267 269 273 278 280 283 283 279 277 274 241 257 279 285 263 241 242 230 222 234 246 246 238 223 211 210 201 195 196 200
226 187 221 256 272 290 272 255 256 263 271 280 280 268 260 262 270 270 274 276 275 279 286 267 243 252 268 279 280 272 246 209 216 228 237 246 237 219 218 224 220 214 217 207
208 197 205 239 241 235 261 268 259 259 267 269 275 282 276 258 266 275 276 277 275 277 280 276 268 261 270 273 278 281 259 217 208 224 231 233 231 225 220 222 266 269 247 242